Tupelo, MS

3:48 AM CDT on June 24, 2017 (GMT -0500)
Tupelo Regional

Weather History for KTUP - January, 2013

Change the Weather History Date:

Tuesday, January 29, 2013

  Actual Average Record
Temperature  
Mean Temperature 65 °F 42 °F  
Max Temperature 76 °F 53 °F 77 °F (1947)
Min Temperature 54 °F 32 °F 0 °F (1966)
Degree Days  
Heating Degree Days 0 23  
Month to date heating degree days 557 681  
Since 1 July heating degree days 1644 1854  
Cooling Degree Days 0 0  
Month to date cooling degree days 6 0  
Year to date cooling degree days 6 0  
Growing Degree Days 18 (Base 50)    
Moisture  
Dew Point 60 °F    
Average Humidity 81    
Maximum Humidity 100    
Minimum Humidity 61    
Precipitation  
Precipitation 0.00 in 0.15 in 1.18 in (2003)
Month to date precipitation 6.66 4.18  
Year to date precipitation 6.66 4.18  
Snow  
Snow 0.00 in 0.00 in 0.50 in (1936)
Month to date snowfall T 0.8  
Since 1 July snowfall T 1.1  
Snow Depth 0.00 in    
Sea Level Pressure  
Sea Level Pressure 29.94 in    
Wind  
Wind Speed 13 mph (SSW)    
Max Wind Speed 28 mph    
Max Gust Speed 36 mph    
Visibility 6 miles    
Events Fog    
T = Trace of Precipitation, MM = Missing Value Source: NWS Daily Summary

Daily Weather History Graph

Daily Weather History Graph

Search for Another Location

Airport or City:

Trip Planner

Search our weather history database for the weather conditions in past years. The results will help you decide how hot, cold, wet, or windy it might be!

Date:

Astronomy

Jan. 29, 2013 Rise Set
Actual Time 6:54 AM CST 5:22 PM CST
Civil Twilight 6:27 AM CST 5:48 PM CST
Nautical Twilight 5:57 AM CST 6:19 PM CST
Astronomical Twilight 5:28 AM CST 6:48 PM CST
Moon 8:08 PM CST (1/29) 8:00 AM CST (1/29)
Length of Visible Light 11h 21m
Length of Day
10h 28m
Waning Gibbous, 93% of the Moon is Illuminated
Jan 29
Waning Gibbous
Feb 3
Last Quarter
Feb 10
New
Feb 17
First Quarter
Feb 25
Full

Hourly Weather History & Observations

Time (CST) Temp. Dew Point Humidity Pressure Visibility Wind Dir Wind Speed Gust Speed Precip Events Conditions
12:53 AM 57.0 °F 54.0 °F 89% 30.12 in 10.0 mi South 4.6 mph - N/A   Overcast
1:53 AM 55.9 °F 54.0 °F 93% 30.11 in 8.0 mi South 5.8 mph - N/A   Clear
2:53 AM 55.9 °F 54.0 °F 93% 30.08 in 7.0 mi South 6.9 mph - N/A   Clear
3:05 AM 55.4 °F 53.6 °F 94% 30.08 in 7.0 mi South 8.1 mph - N/A   Mostly Cloudy
3:34 AM 57.2 °F 55.4 °F 94% 30.08 in 5.0 mi South 13.8 mph - N/A   Overcast
3:53 AM 57.9 °F 55.9 °F 93% 30.06 in 1.8 mi SSW 13.8 mph - N/A   Overcast
4:45 AM 60.8 °F 57.2 °F 88% 30.05 in 2.5 mi SSW 13.8 mph 21.9 mph N/A   Overcast
4:53 AM 60.1 °F 57.9 °F 93% 30.04 in 3.0 mi SSW 16.1 mph - N/A   Overcast
5:53 AM 60.1 °F 59.0 °F 96% 30.07 in 5.0 mi SSW 8.1 mph - N/A   Overcast
6:24 AM 60.8 °F 59.0 °F 94% 30.07 in 2.0 mi SSW 8.1 mph - N/A   Overcast
6:31 AM 60.8 °F 59.0 °F 94% 30.07 in 1.8 mi South 8.1 mph - N/A   Overcast
6:44 AM 60.8 °F 59.0 °F 94% 30.07 in 2.0 mi SSW 9.2 mph - N/A   Overcast
6:53 AM 60.1 °F 59.0 °F 96% 30.06 in 2.0 mi South 8.1 mph - N/A   Overcast
7:04 AM 60.8 °F 59.0 °F 94% 30.07 in 1.5 mi South 9.2 mph - N/A   Overcast
7:18 AM 60.8 °F 59.0 °F 94% 30.07 in 0.8 mi South 9.2 mph - N/A   Overcast
7:53 AM 61.0 °F 59.0 °F 93% 30.06 in 0.5 mi South 6.9 mph - N/A Fog Fog
8:13 AM 60.8 °F 60.8 °F 100% 30.06 in 1.0 mi South 6.9 mph - N/A   Overcast
8:35 AM 60.8 °F 60.8 °F 100% 30.05 in 0.8 mi South 5.8 mph - N/A   Overcast
8:43 AM 60.8 °F 60.8 °F 100% 30.05 in 1.0 mi SSW 4.6 mph - N/A   Overcast
8:53 AM 61.0 °F 60.1 °F 97% 30.05 in 1.2 mi SSW 8.1 mph - N/A   Overcast
9:30 AM 60.8 °F 60.8 °F 100% 30.04 in 2.5 mi South 5.8 mph - N/A   Overcast
9:44 AM 62.6 °F 60.8 °F 94% 30.03 in 3.0 mi SSW 6.9 mph - N/A   Overcast
9:53 AM 62.1 °F 61.0 °F 96% 30.03 in 2.0 mi South 4.6 mph - N/A   Overcast
10:17 AM 62.6 °F 60.8 °F 94% 30.02 in 6.0 mi SSW 8.1 mph - N/A   Overcast
10:53 AM 64.0 °F 62.1 °F 93% 30.00 in 7.0 mi South 10.4 mph - N/A   Overcast
11:38 AM 66.2 °F 62.6 °F 88% 29.97 in 10.0 mi SSW 12.7 mph - N/A   Overcast
11:53 AM 66.0 °F 62.1 °F 87% 29.96 in 10.0 mi South 13.8 mph 20.7 mph N/A   Overcast
12:53 PM 69.1 °F 63.0 °F 81% 29.89 in 10.0 mi South 12.7 mph - N/A   Overcast
1:06 PM 71.6 °F 62.6 °F 73% 29.88 in 10.0 mi South 18.4 mph 23.0 mph N/A   Mostly Cloudy
1:53 PM 73.0 °F 63.0 °F 71% 29.85 in 10.0 mi SSW 17.3 mph 23.0 mph N/A   Overcast
2:37 PM 73.4 °F 62.6 °F 69% 29.83 in 10.0 mi South 13.8 mph 24.2 mph N/A   Scattered Clouds
2:53 PM 73.0 °F 63.0 °F 71% 29.82 in 10.0 mi South 12.7 mph - N/A   Clear
3:53 PM 75.9 °F 62.1 °F 62% 29.80 in 10.0 mi SSW 18.4 mph 25.3 mph N/A   Partly Cloudy
4:53 PM 73.9 °F 59.0 °F 59% 29.79 in 10.0 mi SSW 13.8 mph - N/A   Scattered Clouds
5:53 PM 71.1 °F 60.1 °F 68% 29.78 in 10.0 mi South 9.2 mph - N/A   Scattered Clouds
6:53 PM 70.0 °F 60.1 °F 71% 29.77 in 10.0 mi South 12.7 mph - N/A   Clear
7:53 PM 71.1 °F 61.0 °F 70% 29.74 in 10.0 mi South 15.0 mph 23.0 mph N/A   Clear
8:53 PM 71.1 °F 62.1 °F 73% 29.72 in 10.0 mi South 19.6 mph 26.5 mph N/A   Clear
9:42 PM 71.6 °F 62.6 °F 73% 29.70 in 10.0 mi SSW 18.4 mph 26.5 mph N/A   Mostly Cloudy
9:53 PM 71.1 °F 63.0 °F 75% 29.68 in 10.0 mi South 17.3 mph 27.6 mph N/A   Mostly Cloudy
10:53 PM 71.1 °F 63.0 °F 75% 29.65 in 10.0 mi South 23.0 mph 35.7 mph N/A   Scattered Clouds
11:27 PM 71.6 °F 62.6 °F 73% 29.64 in 10.0 mi SSW 20.7 mph 34.5 mph N/A   Mostly Cloudy
11:53 PM 71.1 °F 63.0 °F 75% 29.62 in 10.0 mi SSW 23.0 mph 33.4 mph N/A   Overcast